Preview of NWS' New Version of Forecast
This preview is not operational and should not be used for support decisions.

Regional Weather Roundup (RWR)

Issued by National Weather Service (NWS)

                            
000
ASUS42 KTBW 222017
RWRFL 
FLORIDA REGIONAL WEATHER ROUNDUP
NATIONAL WEATHER SERVICE TAMPA BAY RUSKIN FL
400 PM EDT SUN SEP 22 2019

NOTE: "FAIR" INDICATES FEW OR NO CLOUDS BELOW 12,000 FEET WITH NO
SIGNIFICANT WEATHER AND/OR OBSTRUCTIONS TO VISIBILITY.

FLZ001>010-012>015-112-114-115-222100-
PANHANDLE FLORIDA
  
CITY           SKY/WX    TMP DP  RH WIND       PRES   REMARKS
PENSACOLA      FAIR      88  65  46 SE15      30.08F                  
PENSACOLA NAS  FAIR      86  65  49 SE15      30.08F                  
MILTON NAS     FAIR      90  60  36 VRB6      30.07F                  
CRESTVIEW      FAIR      90  59  35 VRB3      30.08F                  
DUKE FIELD     FAIR      89  60  37 SE7G17    30.07F                  
MARY ESTHER    MOSUNNY   85  65  50 S10       30.07F                  
TRI COUNTY     FAIR      90  60  36 VRB5G16   30.08F                  
PANAMA CITY    FAIR      90  61  37 E12       30.06F                  
APALACHICOLA   FAIR      84  65  52 SE14      30.08F                  

STATION/POSITION SKY/WX   TEMP    WIND        PRES    WAVE   SWELL
                          AIR SEA DIR/SP/G            HT/PER HT/PER
                          (F)     (DEG/KT/KT) (MB)    (FT/S) (FT/S)
30.1N   87.6W              81 84  110/ 12/ 14 1019.0F   5/ 7   3/ 7
29.2N   88.2W              82      80/ 12/ 16 1018.2F   5/ 7   3/ 7
28.8N   86.0W                 84   90/ 16/ 17 1017.8F   4/ 6   2/ 7
PANAMA CITY BEAC           82 84  180/  6/  8 1019.2F
TOWER C                    79      90/ 13/ 14 1018.8F
28.5N   84.5W              81      70/ 12/ 14 1018.6F   3/ 5   2/ 7

$$
FLZ011-016>038-118-127-128-134-139-239-222100-
NORTH FLORIDA
  
CITY           SKY/WX    TMP DP  RH WIND       PRES   REMARKS
MARIANNA       FAIR      88  61  40 SE9       30.07F                  
TALLAHASSEE    FAIR      88  64  44 SE9       30.07F                  
PERRY          FAIR      87  66  48 E7        30.08F                  
LIVE OAK       MOSUNNY   86  61  42 NE7       30.07F                  
CROSS CITY       N/A     90  66  44 NE6       30.06F                  
LAKE CITY      FAIR      86  63  45 E8        30.08F                  
GAINESVILLE    FAIR      87  63  44 E12G22    30.10F                  
WILLISTON      FAIR      87  64  45 E12       30.07S                  
PALATKA        FAIR      84  63  48 E14       30.09F                  
MAYPORT NAS    FAIR      84  68  58 E10       30.10F                  
JACKSONVILLE   PTSUNNY   84  65  52 E14       30.09F                  
JAX NAS        PTSUNNY   85  66  53 E12       30.10F                  
JAX CECIL      PTSUNNY   90  68  48 NE12      30.09F                  
FERNANDINA BEA CLOUDY    83  69  61 NE13      30.11F                  
ST AUGUSTINE   FAIR      82  32  16 E13       30.11F                  
PALM COAST     MOSUNNY   82  64  54 E13G20    30.10F                  

STATION/POSITION SKY/WX   TEMP    WIND        PRES    WAVE   SWELL
                          AIR SEA DIR/SP/G            HT/PER HT/PER
                          (F)     (DEG/KT/KT) (MB)    (FT/S) (FT/S)
SHELL POINT      NOT AVBL
KEATON BEACH               86      50/  9/ 12 1018.1F
CEDAR KEY                  85      90/ 11/ 13 1017.8F
FERNANDINA                 88 80   40/  4/ 11 1020.4F
30.7N   81.3W                 81                N/A     4/13   2/13
MAYPORT                    81 80   90/  8/ 11 1020.3
31.4N   80.9W              79 81   60/ 12/ 16 1020.0F   4/ 8   3/ 8
ST AUGUSTINE               81 81  100/ 13/ 15 1019.4F

$$
FLZ040-043>046-052-053-057-058-063-144-222100-
INTERIOR CENTRAL FLORIDA
  
CITY           SKY/WX    TMP DP  RH WIND       PRES   REMARKS
OCALA          FAIR      87  63  44 E8        30.08F                  
LEESBURG       PTSUNNY   88  65  46 E12       30.07F                  
SANFORD        FAIR      86  62  44 NE15      30.08F                  
ORLANDO EXEC   FAIR      86  63  45 E16       30.07F                  
ORLANDO INTL   FAIR      86  66  51 NE12      30.06F                  
KISSIMMEE      PTSUNNY   85  66  53 E15       30.07F                  
WINTER HAVEN   FAIR      89  66  46 E15       30.06F                  
LAKELAND       MOSUNNY   86  64  48 E16       30.05F                  
BARTOW         MOSUNNY   86  68  54 E13G23    30.04F                  
SEBRING        MOCLDY    85  66  52 NE14G21   30.05S                  
OKEECHOBEE     PTSUNNY   82  64  54 E8G17     30.04S                  

$$
FLZ041-047-054-059-064-141-147-222100-
EAST CENTRAL FLORIDA
  
CITY           SKY/WX    TMP DP  RH WIND       PRES   REMARKS
ORMOND BEACH   MOSUNNY   82  66  57 E10G17    30.09F                  
DAYTONA BEACH  FAIR      83  65  54 E15G22    30.09F                  
DELAND         PTSUNNY   84  64  51 NE12      30.08F                  
NEW SMYRNA BEA PTSUNNY   84  64  51 E12       30.10F                  
JFK SPACE CTR  MOSUNNY   84  66  54 E9        30.08                   
TITUSVILLE     PTSUNNY   86  64  48 E12       30.09F                  
CAPE CANAVERAL FAIR      84  68  58 E14       30.07                   
PATRICK AFB    FAIR      84  68  59 NE12      30.07F                  
MELBOURNE      FAIR      86  66  51 E13       30.06F                  
VERO BEACH     CLOUDY    83  68  60 NE14      30.06S                  
FT PIERCE      FAIR      84  65  52 E17       30.04F                  
STUART         PTSUNNY   82  66  57 E12G17    30.06R                  

STATION/POSITION SKY/WX   TEMP    WIND        PRES    WAVE   SWELL
                          AIR SEA DIR/SP/G            HT/PER HT/PER
                          (F)     (DEG/KT/KT) (MB)    (FT/S) (FT/S)
28.5N   80.2W              81 83   70/ 16/ 19 1018.7F   6/ 9   5/ 9
28.9N   78.5W              79 80   60/ 17/ 21 1018.8F   7/14   5/14
TRIDENT PIER               84 81   60/ 11/ 14 1020.2
28.4N   80.5W                 81                N/A     4/ 8   2/14
27.5N   80.2W                 82                N/A     6/14   3/14

$$
FLZ050-056-061-142-242-148-248-149-249-151-251-155-255-
160-260-222100-
WEST CENTRAL FLORIDA
  
CITY           SKY/WX    TMP DP  RH WIND       PRES   REMARKS
CRYSTAL RIVER  FAIR      88  64  45 E12       30.05F                  
INVERNESS      PTSUNNY   88  66  48 E13       30.07S                  
BROOKSVILLE    FAIR      89  62  40 E14G24    30.05F                  
CLEARWATER AIR FAIR      88  63  42 E10       30.03F                  
ST PETE CLEARW FAIR      90  66  45 E13       30.02F                  
TAMPA INTL     FAIR      90  63  40 E13G21    30.03F                  
TAMPA EXEC     FAIR      88  68  51 E9        30.04F                  
PLANT CITY     FAIR      88  70  55 E13       30.06F                  
PETER O KNIGHT CLOUDY    90  68  48 E13       30.03F                  
ST PETERSBURG  FAIR      87  70  56 E15       30.01F                  
SARASOTA       FAIR      91  65  41 E16G23    30.00F                  
VENICE         FAIR      91  66  43 E16       30.01F                  

STATION/POSITION SKY/WX   TEMP    WIND        PRES    WAVE   SWELL
                          AIR SEA DIR/SP/G            HT/PER HT/PER
                          (F)     (DEG/KT/KT) (MB)    (FT/S) (FT/S)
27.3N   84.2W                 84                N/A     5/ 5
CLEARWATER BEACH           87 83   60/  7/ 13 1017.3F
MIDDLE TAMPA BAY           85      80/ 16/ 18 1017.3
VENICE                     87 84   60/ 15/ 21 1015.9F

$$
FLZ066-069-070-075>078-162-262-165-265-222100-
SOUTHWEST FLORIDA AND KEYS
  
CITY           SKY/WX    TMP DP  RH WIND       PRES   REMARKS
PUNTA GORDA    FAIR      89  65  44 E17G24    30.02F                  
FT MYERS       PTSUNNY   88  66  48 NE15G23   29.99S                  
SOUTHWEST INTL FAIR      88  68  51 NE17      29.99F                  
NAPLES         FAIR      92  70  48 E18G25    29.96F HX  97           
MARCO ISLAND   FAIR      88  68  51 NE16      29.97F                  
IMMOKALEE      FAIR      90  68  48 NE17G24   29.97F                  
MARATHON       FAIR      82  74  76 NE18G29   29.92F                  
KEY WEST NAS   CLOUDY    83  73  72 E20G26    29.92F                  
KEY WEST INTL  CLOUDY    83  73  72 E12G24    29.92F                  

STATION/POSITION SKY/WX   TEMP    WIND        PRES    WAVE   SWELL
                          AIR SEA DIR/SP/G            HT/PER HT/PER
                          (F)     (DEG/KT/KT) (MB)    (FT/S) (FT/S)
NAPLES                     87 83   70/ 10/ 16 1015.0F
26.0N   85.6W              83 85   60/ 16/ 19 1015.9
DRY TORTUGAS               83      80/ 24/ 27 1013.8F
SAND KEY                   82      70/ 25/ 30 1011.5F
SOMBRERO KEY               82      60/ 21/ 27 1013.2F
LONG KEY                   82                 1012.2F

$$
FLZ067-068-071>074-168-172>174-222100-
SOUTHEAST FLORIDA 
  
CITY           SKY/WX    TMP DP  RH WIND       PRES   REMARKS
W PALM BEACH   PTSUNNY   84  69  60 NE15G28   30.02F                  
BOCA RATON     MOSUNNY   86  72  62 NE23G31   30.00F                  
FT LAUDER-EXEC PTSUNNY   83  71  67 NE13G23   29.98F                  
FT LAUDERDALE  PTSUNNY   85  72  65 E17G24    29.97F                  
POMPANO BEACH  FAIR      86  70  58 NE17G28   29.99F                  
PEMBROKE PINES CLOUDY    86  71  60 NE21      29.99F                  
OPA LOCKA      PTSUNNY   85  71  63 E21       29.98F                  
MIAMI          CLOUDY    85  70  60 NE13G25   29.97F                  
WEST KENDALL   FAIR      85  72  65 E18       29.96F                  
HOMESTEAD      FAIR      83  73  70 NE14G22   29.95F                  

STATION/POSITION SKY/WX   TEMP    WIND        PRES    WAVE   SWELL
                          AIR SEA DIR/SP/G            HT/PER HT/PER
                          (F)     (DEG/KT/KT) (MB)    (FT/S) (FT/S)
VIRGINIA KEY               83 83   40/ 15/ 20 1014.6F
LAKE WORTH                 81 82   40/ 19/ 24 1017.6
FOWEY ROCKS                82 84   60/ 21/ 24 1014.7F
SETTLEMENT POINT           80      50/ 17/ 20 1016.3F

$$